Home > Weather > Lewiston > Past weeks

Flag for U.S.A. Weather for the Past 2 Weeks in Lewiston, Idaho, U.S.A.

Now
45 °F

Clear.


Feels Like: 41 °F
Forecast: 42 / 55 °F
Wind: 8 mph from East

Location: Lewiston-Nez Perce County Airport

Current Time: Feb 11, 2016 at 5:27:34 AM

Latest Report: Feb 11, 2016 at 4:56 AM


Visibility: 10 mi

Pressure: 30.32 "Hg

Humidity: 68%

Dew point: 35 °F

Location of LewistonLocation

Historic Weather in Lewiston — Graph

°F

Lewiston Temperature Yesterday

Maximum temperature yesterday: 53 °F (at 12:56 PM)
Minimum temperature yesterday: 40 °F (at 1:56 AM)
Average temperature yesterday: 47 °F

High & Low Weather Summary for the Past Weeks

 TemperatureHumidityPressure
High59 °F (Feb 9, 1:56 PM)100% (Feb 2, 8:56 AM)30.69 "Hg (Feb 2, 8:56 AM)
Low28 °F (Feb 3, 5:56 AM)33% (Feb 6, 1:56 PM)29.68 "Hg (Jan 29, 12:56 PM)
Average42 °F66%30.25 "Hg
* Reported Jan 27 3:56 AM — Feb 11 3:56 AM, Lewiston, Weather by CustomWeather, © 2016

Note: Actual official high and low records may vary slightly from our data, if they occured in-between our weather recording intervals... More about our weather records

Advertising

Lewiston Weather History for the Previous 24 Hours

 ConditionsComfort  
Time TempWeatherWind HumidityBarometerVisibility
3:56 AM
Thu, Feb 11
46 °FClear.No wind63%30.32 "Hg10 mi
2:56 AM47 °FClear.No wind59%30.34 "Hg10 mi
1:56 AM48 °FPassing clouds.No wind59%30.33 "Hg10 mi
12:56 AM49 °FPassing clouds.8 mph55%30.32 "Hg10 mi
11:56 PM
Wed, Feb 10
48 °FPassing clouds.3 mph59%30.32 "Hg10 mi
10:56 PM47 °FClear.6 mph64%30.32 "Hg10 mi
9:56 PM49 °FClear.6 mph57%30.31 "Hg10 mi
8:56 PM47 °FPassing clouds.No wind61%30.30 "Hg10 mi
7:56 PM50 °FPassing clouds.9 mph54%30.29 "Hg10 mi
6:56 PM49 °FPassing clouds.7 mph59%30.32 "Hg10 mi
5:56 PM50 °FPassing clouds.5 mph54%30.31 "Hg10 mi
4:56 PM52 °FPartly sunny.3 mph53%30.30 "Hg10 mi
3:56 PM52 °FSunny.No wind55%30.28 "Hg10 mi
2:56 PM52 °FScattered clouds.3 mph55%30.28 "Hg10 mi
1:56 PM53 °FSunny.3 mph51%30.26 "Hg10 mi
12:56 PM53 °FSunny.9 mph48%30.26 "Hg10 mi
11:56 AM50 °FSunny.6 mph57%30.27 "Hg10 mi
10:56 AM48 °FSunny.6 mph54%30.31 "Hg10 mi
9:56 AM46 °FSunny.12 mph58%30.31 "Hg10 mi
8:56 AM45 °FSunny.14 mph58%30.29 "Hg10 mi
7:56 AM42 °FSunny.10 mph65%30.30 "Hg10 mi
6:56 AM41 °FClear.13 mph65%30.28 "Hg10 mi
5:56 AM41 °FClear.10 mph65%30.29 "Hg10 mi
Weather by CustomWeather, © 2016

See weather overviewHow to use our weather pages